Year,Month,Day,Hour,Minute,Value (Times are PST for temperature in C)
2009,12,10,00,00,-5.70
2009,12,10,00,01,-5.80
2009,12,10,00,02,-5.80
2009,12,10,00,03,-5.80
2009,12,10,00,04,-5.90
2009,12,10,00,05,-5.90
2009,12,10,00,06,-5.90
2009,12,10,00,07,-5.90
2009,12,10,00,08,-5.90
2009,12,10,00,09,-5.90
2009,12,10,00,10,-5.90
2009,12,10,00,11,-5.90
2009,12,10,00,12,-5.80
2009,12,10,00,13,-5.80
2009,12,10,00,14,-5.70
2009,12,10,00,15,-5.70
2009,12,10,00,16,-5.70
2009,12,10,00,17,-5.70
2009,12,10,00,18,-5.70
2009,12,10,00,19,-5.80
2009,12,10,00,20,-5.80
2009,12,10,00,21,-5.80
2009,12,10,00,22,-5.90
2009,12,10,00,23,-5.90
2009,12,10,00,24,-5.90
2009,12,10,00,25,-5.90
2009,12,10,00,26,-6.00
2009,12,10,00,27,-6.00
2009,12,10,00,28,-6.10
2009,12,10,00,29,-6.10
2009,12,10,00,30,-6.10
2009,12,10,00,31,-6.10
2009,12,10,00,32,-6.20
2009,12,10,00,33,-6.20
2009,12,10,00,34,-6.30
2009,12,10,00,35,-6.30
2009,12,10,00,36,-6.30
2009,12,10,00,37,-6.30
2009,12,10,00,38,-6.30
2009,12,10,00,39,-6.30
2009,12,10,00,40,-6.30
2009,12,10,00,41,-6.30
2009,12,10,00,42,-6.20
2009,12,10,00,43,-6.20
2009,12,10,00,44,-6.10
2009,12,10,00,45,-6.10
2009,12,10,00,46,-6.10
2009,12,10,00,47,-6.10
2009,12,10,00,48,-6.00
2009,12,10,00,49,-6.00
2009,12,10,00,50,-6.00
2009,12,10,00,51,-6.00
2009,12,10,00,52,-6.10
2009,12,10,00,53,-6.10
2009,12,10,00,54,-6.10
2009,12,10,00,55,-6.10
2009,12,10,00,56,-6.20
2009,12,10,00,57,-6.20
2009,12,10,00,58,-6.20
2009,12,10,00,59,-6.20
2009,12,10,01,00,-6.20
2009,12,10,01,01,-6.20
2009,12,10,01,02,-6.10
2009,12,10,01,03,-6.10
2009,12,10,01,04,-6.10
2009,12,10,01,05,-6.10
2009,12,10,01,06,-6.10
2009,12,10,01,07,-6.10
2009,12,10,01,08,-6.10
2009,12,10,01,09,-6.10
2009,12,10,01,10,-6.10
2009,12,10,01,11,-6.10
2009,12,10,01,12,-6.20
2009,12,10,01,13,-6.20
2009,12,10,01,14,-6.30
2009,12,10,01,15,-6.40
2009,12,10,01,16,-6.40
2009,12,10,01,17,-6.40
2009,12,10,01,18,-6.40
2009,12,10,01,19,-6.50
2009,12,10,01,20,-6.50
2009,12,10,01,21,-6.40
2009,12,10,01,22,-6.40
2009,12,10,01,23,-6.40
2009,12,10,01,24,-6.40
2009,12,10,01,25,-6.40
2009,12,10,01,26,-6.30
2009,12,10,01,27,-6.30
2009,12,10,01,28,-6.30
2009,12,10,01,29,-6.20
2009,12,10,01,30,-6.20
2009,12,10,01,31,-6.10
2009,12,10,01,32,-6.10
2009,12,10,01,33,-6.10
2009,12,10,01,34,-6.10
2009,12,10,01,35,-6.10
2009,12,10,01,36,-6.00
2009,12,10,01,37,-6.00
2009,12,10,01,38,-6.00
2009,12,10,01,39,-6.00
2009,12,10,01,40,-6.00
2009,12,10,01,41,-6.00
2009,12,10,01,42,-6.00
2009,12,10,01,43,-6.00
2009,12,10,01,44,-6.00
2009,12,10,01,45,-6.00
2009,12,10,01,46,-6.00
2009,12,10,01,47,-6.00
2009,12,10,01,48,-6.00
2009,12,10,01,49,-5.90
2009,12,10,01,50,-5.90
2009,12,10,01,51,-5.90
2009,12,10,01,52,-5.80
2009,12,10,01,53,-5.80
2009,12,10,01,54,-5.70
2009,12,10,01,55,-5.70
2009,12,10,01,56,-5.70
2009,12,10,01,57,-5.60
2009,12,10,01,58,-5.60
2009,12,10,01,59,-5.60
2009,12,10,02,00,-5.60
2009,12,10,02,01,-5.50
2009,12,10,02,02,-5.50
2009,12,10,02,03,-5.50
2009,12,10,02,04,-5.50
2009,12,10,02,05,-5.50
2009,12,10,02,06,-5.40
2009,12,10,02,07,-5.40
2009,12,10,02,08,-5.40
2009,12,10,02,09,-5.40
2009,12,10,02,10,-5.40
2009,12,10,02,11,-5.40
2009,12,10,02,12,-5.40
2009,12,10,02,13,-5.30
2009,12,10,02,14,-5.30
2009,12,10,02,15,-5.30
2009,12,10,02,16,-5.30
2009,12,10,02,17,-5.30
2009,12,10,02,18,-5.30
2009,12,10,02,19,-5.30
2009,12,10,02,20,-5.30
2009,12,10,02,21,-5.20
2009,12,10,02,22,-5.20
2009,12,10,02,23,-5.20
2009,12,10,02,24,-5.10
2009,12,10,02,25,-5.10
2009,12,10,02,26,-5.10
2009,12,10,02,27,-5.10
2009,12,10,02,28,-5.10
2009,12,10,02,29,-5.00
2009,12,10,02,30,-5.00
2009,12,10,02,31,-5.00
2009,12,10,02,32,-4.90
2009,12,10,02,33,-5.00
2009,12,10,02,34,-5.00
2009,12,10,02,35,-5.00
2009,12,10,02,36,-5.00
2009,12,10,02,37,-5.00
2009,12,10,02,38,-5.00
2009,12,10,02,39,-5.00
2009,12,10,02,40,-5.00
2009,12,10,02,41,-5.00
2009,12,10,02,42,-5.00
2009,12,10,02,43,-4.90
2009,12,10,02,44,-4.90
2009,12,10,02,45,-4.90
2009,12,10,02,46,-4.90
2009,12,10,02,47,-4.90
2009,12,10,02,48,-4.90
2009,12,10,02,49,-4.90
2009,12,10,02,50,-4.80
2009,12,10,02,51,-4.80
2009,12,10,02,52,-4.80
2009,12,10,02,53,-4.80
2009,12,10,02,54,-4.80
2009,12,10,02,55,-4.80
2009,12,10,02,56,-4.80
2009,12,10,02,57,-4.80
2009,12,10,02,58,-4.70
2009,12,10,02,59,-4.70
2009,12,10,03,00,-4.70
2009,12,10,03,01,-4.70
2009,12,10,03,02,-4.70
2009,12,10,03,03,-4.70
2009,12,10,03,04,-4.70
2009,12,10,03,05,-4.70
2009,12,10,03,06,-4.60
2009,12,10,03,07,-4.60
2009,12,10,03,08,-4.50
2009,12,10,03,09,-4.50
2009,12,10,03,10,-4.50
2009,12,10,03,11,-4.50
2009,12,10,03,12,-4.40
2009,12,10,03,13,-4.40
2009,12,10,03,14,-4.40
2009,12,10,03,15,-4.40
2009,12,10,03,16,-4.40
2009,12,10,03,17,-4.40
2009,12,10,03,18,-4.40
2009,12,10,03,19,-4.40
2009,12,10,03,20,-4.40
2009,12,10,03,21,-4.40
2009,12,10,03,22,-4.40
2009,12,10,03,23,-4.40
2009,12,10,03,24,-4.40
2009,12,10,03,25,-4.40
2009,12,10,03,26,-4.40
2009,12,10,03,27,-4.40
2009,12,10,03,28,-4.40
2009,12,10,03,29,-4.30
2009,12,10,03,30,-4.30
2009,12,10,03,31,-4.30
2009,12,10,03,32,-4.30
2009,12,10,03,33,-4.30
2009,12,10,03,34,-4.30
2009,12,10,03,35,-4.30
2009,12,10,03,36,-4.30
2009,12,10,03,37,-4.30
2009,12,10,03,38,-4.20
2009,12,10,03,39,-4.20
2009,12,10,03,40,-4.20
2009,12,10,03,41,-4.20
2009,12,10,03,42,-4.20
2009,12,10,03,43,-4.20
2009,12,10,03,44,-4.20
2009,12,10,03,45,-4.20
2009,12,10,03,46,-4.20
2009,12,10,03,47,-4.20
2009,12,10,03,48,-4.20
2009,12,10,03,49,-4.10
2009,12,10,03,50,-4.10
2009,12,10,03,51,-4.10
2009,12,10,03,52,-4.10
2009,12,10,03,53,-4.10
2009,12,10,03,54,-4.10
2009,12,10,03,55,-4.10
2009,12,10,03,56,-4.10
2009,12,10,03,57,-4.10
2009,12,10,03,58,-4.10
2009,12,10,03,59,-4.10
2009,12,10,04,00,-4.10
2009,12,10,04,01,-4.10
2009,12,10,04,02,-4.00
2009,12,10,04,03,-4.00
2009,12,10,04,04,-4.00
2009,12,10,04,05,-4.00
2009,12,10,04,06,-4.00
2009,12,10,04,07,-4.00
2009,12,10,04,08,-4.00
2009,12,10,04,09,-4.00
2009,12,10,04,10,-4.00
2009,12,10,04,11,-4.00
2009,12,10,04,12,-4.00
2009,12,10,04,13,-4.00
2009,12,10,04,14,-4.00
2009,12,10,04,15,-4.00
2009,12,10,04,16,-3.90
2009,12,10,04,17,-4.00
2009,12,10,04,18,-3.90
2009,12,10,04,19,-3.90
2009,12,10,04,20,-3.90
2009,12,10,04,21,-3.90
2009,12,10,04,22,-3.90
2009,12,10,04,23,-3.90
2009,12,10,04,24,-3.90
2009,12,10,04,25,-3.90
2009,12,10,04,26,-3.90
2009,12,10,04,27,-3.80
2009,12,10,04,28,-3.80
2009,12,10,04,29,-3.80
2009,12,10,04,30,-3.80
2009,12,10,04,31,-3.80
2009,12,10,04,32,-3.80
2009,12,10,04,33,-3.80
2009,12,10,04,34,-3.80
2009,12,10,04,35,-3.80
2009,12,10,04,36,-3.80
2009,12,10,04,37,-3.80
2009,12,10,04,38,-3.80
2009,12,10,04,39,-3.80
2009,12,10,04,40,-3.80
2009,12,10,04,41,-3.80
2009,12,10,04,42,-3.80
2009,12,10,04,43,-3.80
2009,12,10,04,44,-3.80
2009,12,10,04,45,-3.70
2009,12,10,04,46,-3.70
2009,12,10,04,47,-3.70
2009,12,10,04,48,-3.70
2009,12,10,04,49,-3.70
2009,12,10,04,50,-3.70
2009,12,10,04,51,-3.70
2009,12,10,04,52,-3.70
2009,12,10,04,53,-3.70
2009,12,10,04,54,-3.70
2009,12,10,04,55,-3.70
2009,12,10,04,56,-3.70
2009,12,10,04,57,-3.70
2009,12,10,04,58,-3.60
2009,12,10,04,59,-3.60
2009,12,10,05,00,-3.60
2009,12,10,05,01,-3.60
2009,12,10,05,02,-3.60
2009,12,10,05,03,-3.60
2009,12,10,05,04,-3.60
2009,12,10,05,05,-3.60
2009,12,10,05,06,-3.60
2009,12,10,05,07,-3.50
2009,12,10,05,08,-3.50
2009,12,10,05,09,-3.50
2009,12,10,05,10,-3.50
2009,12,10,05,11,-3.50
2009,12,10,05,12,-3.50
2009,12,10,05,13,-3.50
2009,12,10,05,14,-3.40
2009,12,10,05,15,-3.40
2009,12,10,05,16,-3.40
2009,12,10,05,17,-3.40
2009,12,10,05,18,-3.40
2009,12,10,05,19,-3.30
2009,12,10,05,20,-3.30
2009,12,10,05,21,-3.30
2009,12,10,05,22,-3.30
2009,12,10,05,23,-3.30
2009,12,10,05,24,-3.30
2009,12,10,05,25,-3.30
2009,12,10,05,26,-3.20
2009,12,10,05,27,-3.20
2009,12,10,05,28,-3.20
2009,12,10,05,29,-3.20
2009,12,10,05,30,-3.20
2009,12,10,05,31,-3.20
2009,12,10,05,32,-3.20
2009,12,10,05,33,-3.10
2009,12,10,05,34,-3.10
2009,12,10,05,35,-3.10
2009,12,10,05,36,-3.10
2009,12,10,05,37,-3.10
2009,12,10,05,38,-3.10
2009,12,10,05,39,-3.10
2009,12,10,05,40,-3.00
2009,12,10,05,41,-3.00
2009,12,10,05,42,-3.00
2009,12,10,05,43,-3.00
2009,12,10,05,44,-3.00
2009,12,10,05,45,-2.90
2009,12,10,05,46,-2.90
2009,12,10,05,47,-2.90
2009,12,10,05,48,-2.90
2009,12,10,05,49,-2.90
2009,12,10,05,50,-2.90
2009,12,10,05,51,-2.90
2009,12,10,05,52,-2.90
2009,12,10,05,53,-2.90
2009,12,10,05,54,-2.90
2009,12,10,05,55,-2.90
2009,12,10,05,56,-2.90
2009,12,10,05,57,-2.90
2009,12,10,05,58,-2.90
2009,12,10,05,59,-2.90
2009,12,10,06,00,-2.80
2009,12,10,06,01,-2.80
2009,12,10,06,02,-2.80
2009,12,10,06,03,-2.80
2009,12,10,06,04,-2.80
2009,12,10,06,05,-2.80
2009,12,10,06,06,-2.80
2009,12,10,06,07,-2.80
2009,12,10,06,08,-2.80
2009,12,10,06,09,-2.80
2009,12,10,06,10,-2.70
2009,12,10,06,11,-2.70
2009,12,10,06,12,-2.70
2009,12,10,06,13,-2.70
2009,12,10,06,14,-2.70
2009,12,10,06,15,-2.70
2009,12,10,06,16,-2.70
2009,12,10,06,17,-2.70
2009,12,10,06,18,-2.70
2009,12,10,06,19,-2.70
2009,12,10,06,20,-2.70
2009,12,10,06,21,-2.70
2009,12,10,06,22,-2.70
2009,12,10,06,23,-2.70
2009,12,10,06,24,-2.70
2009,12,10,06,25,-2.60
2009,12,10,06,26,-2.60
2009,12,10,06,27,-2.60
2009,12,10,06,28,-2.60
2009,12,10,06,29,-2.60
2009,12,10,06,30,-2.60
2009,12,10,06,31,-2.60
2009,12,10,06,32,-2.60
2009,12,10,06,33,-2.60
2009,12,10,06,34,-2.60
2009,12,10,06,35,-2.60
2009,12,10,06,36,-2.60
2009,12,10,06,37,-2.50
2009,12,10,06,38,-2.50
2009,12,10,06,39,-2.50
2009,12,10,06,40,-2.50
2009,12,10,06,41,-2.50
2009,12,10,06,42,-2.50
2009,12,10,06,43,-2.50
2009,12,10,06,44,-2.50
2009,12,10,06,45,-2.50
2009,12,10,06,46,-2.50
2009,12,10,06,47,-2.50
2009,12,10,06,48,-2.40
2009,12,10,06,49,-2.40
2009,12,10,06,50,-2.40
2009,12,10,06,51,-2.40
2009,12,10,06,52,-2.40
2009,12,10,06,53,-2.40
2009,12,10,06,54,-2.40
2009,12,10,06,55,-2.40
2009,12,10,06,56,-2.40
2009,12,10,06,57,-2.40
2009,12,10,06,58,-2.40
2009,12,10,06,59,-2.40
2009,12,10,07,00,-2.30
2009,12,10,07,01,-2.30
2009,12,10,07,02,-2.30
2009,12,10,07,03,-2.30
2009,12,10,07,04,-2.30
2009,12,10,07,05,-2.30
2009,12,10,07,06,-2.30
2009,12,10,07,07,-2.30
2009,12,10,07,08,-2.20
2009,12,10,07,09,-2.20
2009,12,10,07,10,-2.20
2009,12,10,07,11,-2.20
2009,12,10,07,12,-2.20
2009,12,10,07,13,-2.20
2009,12,10,07,14,-2.20
2009,12,10,07,15,-2.20
2009,12,10,07,16,-2.20
2009,12,10,07,17,-2.20
2009,12,10,07,18,-2.20
2009,12,10,07,19,-2.20
2009,12,10,07,20,-2.20
2009,12,10,07,21,-2.20
2009,12,10,07,22,-2.20
2009,12,10,07,23,-2.20
2009,12,10,07,24,-2.20
2009,12,10,07,25,-2.20
2009,12,10,07,26,-2.20
2009,12,10,07,27,-2.20
2009,12,10,07,28,-2.20
2009,12,10,07,29,-2.20
2009,12,10,07,30,-2.20
2009,12,10,07,31,-2.20
2009,12,10,07,32,-2.20
2009,12,10,07,33,-2.20
2009,12,10,07,34,-2.10
2009,12,10,07,35,-2.10
2009,12,10,07,36,-2.10
2009,12,10,07,37,-2.10
2009,12,10,07,38,-2.10
2009,12,10,07,39,-2.00
2009,12,10,07,40,-2.00
2009,12,10,07,41,-2.00
2009,12,10,07,42,-2.00
2009,12,10,07,43,-2.00
2009,12,10,07,44,-1.90
2009,12,10,07,45,-1.90
2009,12,10,07,46,-1.90
2009,12,10,07,47,-1.90
2009,12,10,07,48,-1.90
2009,12,10,07,49,-1.90
2009,12,10,07,50,-1.90
2009,12,10,07,51,-1.90
2009,12,10,07,52,-1.90
2009,12,10,07,53,-1.90
2009,12,10,07,54,-1.90
2009,12,10,07,55,-1.90
2009,12,10,07,56,-1.90
2009,12,10,07,57,-1.90
2009,12,10,07,58,-1.90
2009,12,10,07,59,-1.90
2009,12,10,08,00,-1.90
2009,12,10,08,01,-1.90
2009,12,10,08,02,-1.90
2009,12,10,08,03,-1.90
2009,12,10,08,04,-1.90
2009,12,10,08,05,-1.90
2009,12,10,08,06,-1.90
2009,12,10,08,07,-1.90
2009,12,10,08,08,-1.90
2009,12,10,08,09,-1.90
2009,12,10,08,10,-1.90
2009,12,10,08,11,-1.90
2009,12,10,08,12,-1.90
2009,12,10,08,13,-1.90
2009,12,10,08,14,-1.90
2009,12,10,08,15,-1.90
2009,12,10,08,16,-1.90
2009,12,10,08,17,-1.90
2009,12,10,08,18,-1.90
2009,12,10,08,19,-1.90
2009,12,10,08,20,-1.90
2009,12,10,08,21,-1.90
2009,12,10,08,22,-1.90
2009,12,10,08,23,-1.90
2009,12,10,08,24,-1.90
2009,12,10,08,25,-1.90
2009,12,10,08,26,-1.90
2009,12,10,08,27,-1.90
2009,12,10,08,28,-1.80
2009,12,10,08,29,-1.80
2009,12,10,08,30,-1.80
2009,12,10,08,31,-1.80
2009,12,10,08,32,-1.80
2009,12,10,08,33,-1.80
2009,12,10,08,34,-1.80
2009,12,10,08,35,-1.80
2009,12,10,08,36,-1.80
2009,12,10,08,37,-1.80
2009,12,10,08,38,-1.80
2009,12,10,08,39,-1.80
2009,12,10,08,40,-1.80
2009,12,10,08,41,-1.80
2009,12,10,08,42,-1.80
2009,12,10,08,43,-1.70
2009,12,10,08,44,-1.70
2009,12,10,08,45,-1.70
2009,12,10,08,46,-1.70
2009,12,10,08,47,-1.70
2009,12,10,08,48,-1.70
2009,12,10,08,49,-1.70
2009,12,10,08,50,-1.70
2009,12,10,08,51,-1.70
2009,12,10,08,52,-1.70
2009,12,10,08,53,-1.70
2009,12,10,08,54,-1.70
2009,12,10,08,55,-1.70
2009,12,10,08,56,-1.70
2009,12,10,08,57,-1.70
2009,12,10,08,58,-1.70
2009,12,10,08,59,-1.70
2009,12,10,09,00,-1.70
2009,12,10,09,01,-1.70
2009,12,10,09,02,-1.60
2009,12,10,09,03,-1.60
2009,12,10,09,04,-1.60
2009,12,10,09,05,-1.60
2009,12,10,09,06,-1.60
2009,12,10,09,07,-1.60
2009,12,10,09,08,-1.60
2009,12,10,09,09,-1.60
2009,12,10,09,10,-1.50
2009,12,10,09,11,-1.50
2009,12,10,09,12,-1.50
2009,12,10,09,13,-1.40
2009,12,10,09,14,-1.40
2009,12,10,09,15,-1.40
2009,12,10,09,16,-1.40
2009,12,10,09,17,-1.40
2009,12,10,09,18,-1.40
2009,12,10,09,19,-1.40
2009,12,10,09,20,-1.30
2009,12,10,09,21,-1.30
2009,12,10,09,22,-1.30
2009,12,10,09,23,-1.30
2009,12,10,09,24,-1.30
2009,12,10,09,25,-1.30
2009,12,10,09,26,-1.20
2009,12,10,09,27,-1.20
2009,12,10,09,28,-1.20
2009,12,10,09,29,-1.20
2009,12,10,09,30,-1.20
2009,12,10,09,31,-1.20
2009,12,10,09,32,-1.20
2009,12,10,09,33,-1.20
2009,12,10,09,34,-1.20
2009,12,10,09,35,-1.20
2009,12,10,09,36,-1.10
2009,12,10,09,37,-1.10
2009,12,10,09,38,-1.10
2009,12,10,09,39,-1.10
2009,12,10,09,40,-1.10
2009,12,10,09,41,-1.00
2009,12,10,09,42,-1.00
2009,12,10,09,43,-1.00
2009,12,10,09,44,-1.00
2009,12,10,09,45,-1.00
2009,12,10,09,46,-0.90
2009,12,10,09,47,-0.90
2009,12,10,09,48,-0.90
2009,12,10,09,49,-0.90
2009,12,10,09,50,-0.90
2009,12,10,09,51,-0.90
2009,12,10,09,52,-0.90
2009,12,10,09,53,-0.90
2009,12,10,09,54,-0.90
2009,12,10,09,55,-0.90
2009,12,10,09,56,-0.90
2009,12,10,09,57,-0.90
2009,12,10,09,58,-0.90
2009,12,10,09,59,-0.80
2009,12,10,10,00,-0.80
2009,12,10,10,01,-0.80
2009,12,10,10,02,-0.80
2009,12,10,10,03,-0.80
2009,12,10,10,04,-0.80
2009,12,10,10,05,-0.80
2009,12,10,10,06,-0.80
2009,12,10,10,07,-0.80
2009,12,10,10,08,-0.80
2009,12,10,10,09,-0.80
2009,12,10,10,10,-0.80
2009,12,10,10,11,-0.80
2009,12,10,10,12,-0.80
2009,12,10,10,13,-0.80
2009,12,10,10,14,-0.80
2009,12,10,10,15,-0.80
2009,12,10,10,16,-0.80
2009,12,10,10,17,-0.80
2009,12,10,10,18,-0.80
2009,12,10,10,19,-0.80
2009,12,10,10,20,-0.80
2009,12,10,10,21,-0.70
2009,12,10,10,22,-0.80
2009,12,10,10,23,-0.80
2009,12,10,10,24,-0.70
2009,12,10,10,25,-0.70
2009,12,10,10,26,-0.70
2009,12,10,10,27,-0.70
2009,12,10,10,28,-0.70
2009,12,10,10,29,-0.70
2009,12,10,10,30,-0.70
2009,12,10,10,31,-0.70
2009,12,10,10,32,-0.70
2009,12,10,10,33,-0.70
2009,12,10,10,34,-0.70
2009,12,10,10,35,-0.70
2009,12,10,10,36,-0.70
2009,12,10,10,37,-0.70
2009,12,10,10,38,-0.70
2009,12,10,10,39,-0.70
2009,12,10,10,40,-0.70
2009,12,10,10,41,-0.60
2009,12,10,10,42,-0.60
2009,12,10,10,43,-0.60
2009,12,10,10,44,-0.60
2009,12,10,10,45,-0.60
2009,12,10,10,46,-0.60
2009,12,10,10,47,-0.60
2009,12,10,10,48,-0.60
2009,12,10,10,49,-0.60
2009,12,10,10,50,-0.60
2009,12,10,10,51,-0.50
2009,12,10,10,52,-0.50
2009,12,10,10,53,-0.50
2009,12,10,10,54,-0.50
2009,12,10,10,55,-0.50
2009,12,10,10,56,-0.50
2009,12,10,10,57,-0.50
2009,12,10,10,58,-0.40
2009,12,10,10,59,-0.40
2009,12,10,11,00,-0.40
2009,12,10,11,01,-0.40
2009,12,10,11,02,-0.40
2009,12,10,11,03,-0.40
2009,12,10,11,04,-0.40
2009,12,10,11,05,-0.40
2009,12,10,11,06,-0.40
2009,12,10,11,07,-0.40
2009,12,10,11,08,-0.40
2009,12,10,11,09,-0.40
2009,12,10,11,10,-0.40
2009,12,10,11,11,-0.40
2009,12,10,11,12,-0.40
2009,12,10,11,13,-0.30
2009,12,10,11,14,-0.30
2009,12,10,11,15,-0.30
2009,12,10,11,16,-0.30
2009,12,10,11,17,-0.30
2009,12,10,11,18,-0.30
2009,12,10,11,19,-0.30
2009,12,10,11,20,-0.30
2009,12,10,11,21,-0.30
2009,12,10,11,22,-0.30
2009,12,10,11,23,-0.30
2009,12,10,11,24,-0.30
2009,12,10,11,25,-0.30
2009,12,10,11,26,-0.30
2009,12,10,11,27,-0.30
2009,12,10,11,28,-0.30
2009,12,10,11,29,-0.30
2009,12,10,11,30,-0.30
2009,12,10,11,31,-0.30
2009,12,10,11,32,-0.30
2009,12,10,11,33,-0.30
2009,12,10,11,34,-0.30
2009,12,10,11,35,-0.30
2009,12,10,11,36,-0.30
2009,12,10,11,37,-0.20
2009,12,10,11,38,-0.20
2009,12,10,11,39,-0.20
2009,12,10,11,40,-0.20
2009,12,10,11,41,-0.20
2009,12,10,11,42,-0.20
2009,12,10,11,43,-0.20
2009,12,10,11,44,-0.20
2009,12,10,11,45,-0.30
2009,12,10,11,46,-0.30
2009,12,10,11,47,-0.30
2009,12,10,11,48,-0.30
2009,12,10,11,49,-0.30
2009,12,10,11,50,-0.20
2009,12,10,11,51,-0.20
2009,12,10,11,52,-0.20
2009,12,10,11,53,-0.20
2009,12,10,11,54,-0.20
2009,12,10,11,55,-0.20
2009,12,10,11,56,-0.20
2009,12,10,11,57,-0.20
2009,12,10,11,58,-0.20
2009,12,10,11,59,-0.20
2009,12,10,12,00,-0.20
2009,12,10,12,01,-0.20
2009,12,10,12,02,-0.20
2009,12,10,12,03,-0.20
2009,12,10,12,04,-0.20
2009,12,10,12,05,-0.20
2009,12,10,12,06,-0.20
2009,12,10,12,07,-0.20
2009,12,10,12,08,-0.20
2009,12,10,12,09,-0.20
2009,12,10,12,10,-0.20
2009,12,10,12,11,-0.20
2009,12,10,12,12,-0.20
2009,12,10,12,13,-0.20
2009,12,10,12,14,-0.20
2009,12,10,12,15,-0.20
2009,12,10,12,16,-0.10
2009,12,10,12,17,-0.10
2009,12,10,12,18,-0.10
2009,12,10,12,19,-0.10
2009,12,10,12,20,-0.10
2009,12,10,12,21,-0.10
2009,12,10,12,22,-0.10
2009,12,10,12,23,-0.10
2009,12,10,12,24,-0.10
2009,12,10,12,25,-0.10
2009,12,10,12,26,-0.10
2009,12,10,12,27,-0.10
2009,12,10,12,28,-0.10
2009,12,10,12,29,-0.10
2009,12,10,12,30,-0.10
2009,12,10,12,31,-0.10
2009,12,10,12,32,-0.10
2009,12,10,12,33,-0.20
2009,12,10,12,34,-0.10
2009,12,10,12,35,-0.10
2009,12,10,12,36,-0.10
2009,12,10,12,37,-0.10
2009,12,10,12,38,-0.10
2009,12,10,12,39,-0.20
2009,12,10,12,40,-0.20
2009,12,10,12,41,-0.20
2009,12,10,12,42,-0.20
2009,12,10,12,43,-0.20
2009,12,10,12,44,-0.20
2009,12,10,12,45,-0.20
2009,12,10,12,46,-0.20
2009,12,10,12,47,-0.20
2009,12,10,12,48,-0.20
2009,12,10,12,49,-0.20
2009,12,10,12,50,-0.10
2009,12,10,12,51,-0.10
2009,12,10,12,52,-0.10
2009,12,10,12,53,-0.10
2009,12,10,12,54,-0.10
2009,12,10,12,55,-0.10
2009,12,10,12,56,-0.10
2009,12,10,12,57,-0.10
2009,12,10,12,58,-0.10
2009,12,10,12,59,-0.10
2009,12,10,13,00,-0.10
2009,12,10,13,01,-0.10
2009,12,10,13,02,-0.10
2009,12,10,13,03,-0.10
2009,12,10,13,04,-0.10
2009,12,10,13,05,-0.10
2009,12,10,13,06,-0.10
2009,12,10,13,07,-0.10
2009,12,10,13,08,-0.10
2009,12,10,13,09,0.00
2009,12,10,13,10,0.00
2009,12,10,13,11,0.00
2009,12,10,13,12,0.00
2009,12,10,13,13,0.00
2009,12,10,13,14,0.00
2009,12,10,13,15,-0.10
2009,12,10,13,16,0.00
2009,12,10,13,17,-0.10
2009,12,10,13,18,-0.10
2009,12,10,13,19,-0.10
2009,12,10,13,20,-0.10
2009,12,10,13,21,-0.10
2009,12,10,13,22,-0.10
2009,12,10,13,23,-0.10
2009,12,10,13,24,0.00
2009,12,10,13,25,0.00
2009,12,10,13,26,0.00
2009,12,10,13,27,0.00
2009,12,10,13,28,0.00
2009,12,10,13,29,0.00
2009,12,10,13,30,0.00
2009,12,10,13,31,0.00
2009,12,10,13,32,0.00
2009,12,10,13,33,0.00
2009,12,10,13,34,0.00
2009,12,10,13,35,0.00
2009,12,10,13,36,0.00
2009,12,10,13,37,0.00
2009,12,10,13,38,0.00
2009,12,10,13,39,0.00
2009,12,10,13,40,0.00
2009,12,10,13,41,0.00
2009,12,10,13,42,0.00
2009,12,10,13,43,0.00
2009,12,10,13,44,0.10
2009,12,10,13,45,0.10
2009,12,10,13,46,0.10
2009,12,10,13,47,0.10
2009,12,10,13,48,0.10
2009,12,10,13,49,0.10
2009,12,10,13,50,0.10
2009,12,10,13,51,0.10
2009,12,10,13,52,0.10
2009,12,10,13,53,0.10
2009,12,10,13,54,0.10
2009,12,10,13,55,0.10
2009,12,10,13,56,0.10
2009,12,10,13,57,0.10
2009,12,10,13,58,0.00
2009,12,10,13,59,0.00
2009,12,10,14,00,0.00
2009,12,10,14,01,0.00
2009,12,10,14,02,0.00
2009,12,10,14,03,0.00
2009,12,10,14,04,0.00
2009,12,10,14,05,0.00
2009,12,10,14,06,0.10
2009,12,10,14,07,0.10
2009,12,10,14,08,0.10
2009,12,10,14,09,0.10
2009,12,10,14,10,0.10
2009,12,10,14,11,0.10
2009,12,10,14,12,0.10
2009,12,10,14,13,0.10
2009,12,10,14,14,0.10
2009,12,10,14,15,0.10
2009,12,10,14,16,0.10
2009,12,10,14,17,0.10
2009,12,10,14,18,0.10
2009,12,10,14,19,0.10
2009,12,10,14,20,0.10
2009,12,10,14,21,0.10
2009,12,10,14,22,0.10
2009,12,10,14,23,0.10
2009,12,10,14,24,0.10
2009,12,10,14,25,0.10
2009,12,10,14,26,0.10
2009,12,10,14,27,0.10
2009,12,10,14,28,0.10
2009,12,10,14,29,0.10
2009,12,10,14,30,0.10
2009,12,10,14,31,0.10
2009,12,10,14,32,0.10
2009,12,10,14,33,0.10
2009,12,10,14,34,0.10
2009,12,10,14,35,0.10
2009,12,10,14,36,0.10
2009,12,10,14,37,0.10
2009,12,10,14,38,0.20
2009,12,10,14,39,0.20
2009,12,10,14,40,0.20
2009,12,10,14,41,0.20
2009,12,10,14,42,0.20
2009,12,10,14,43,0.20
2009,12,10,14,44,0.20
2009,12,10,14,45,0.20
2009,12,10,14,46,0.20
2009,12,10,14,47,0.20
2009,12,10,14,48,0.20
2009,12,10,14,49,0.30
2009,12,10,14,50,0.30
2009,12,10,14,51,0.30
2009,12,10,14,52,0.30
2009,12,10,14,53,0.30
2009,12,10,14,54,0.30
2009,12,10,14,55,0.30
2009,12,10,14,56,0.30
2009,12,10,14,57,0.30
2009,12,10,14,58,0.30
2009,12,10,14,59,0.30
2009,12,10,15,00,0.30
2009,12,10,15,01,0.30
2009,12,10,15,02,0.20
2009,12,10,15,03,0.20
2009,12,10,15,04,0.20
2009,12,10,15,05,0.20
2009,12,10,15,06,0.30
2009,12,10,15,07,0.30
2009,12,10,15,08,0.30
2009,12,10,15,09,0.30
2009,12,10,15,10,0.30
2009,12,10,15,11,0.30
2009,12,10,15,12,0.30
2009,12,10,15,13,0.30
2009,12,10,15,14,0.30
2009,12,10,15,15,0.30
2009,12,10,15,16,0.30
2009,12,10,15,17,0.30
2009,12,10,15,18,0.30
2009,12,10,15,19,0.30
2009,12,10,15,20,0.30
2009,12,10,15,21,0.30
2009,12,10,15,22,0.30
2009,12,10,15,23,0.30
2009,12,10,15,24,0.30
2009,12,10,15,25,0.30
2009,12,10,15,26,0.30
2009,12,10,15,27,0.30
2009,12,10,15,28,0.30
2009,12,10,15,29,0.30
2009,12,10,15,30,0.30
2009,12,10,15,31,0.30
2009,12,10,15,32,0.30
2009,12,10,15,33,0.30
2009,12,10,15,34,0.30
2009,12,10,15,35,0.30
2009,12,10,15,36,0.30
2009,12,10,15,37,0.30
2009,12,10,15,38,0.30
2009,12,10,15,39,0.30
2009,12,10,15,40,0.30
2009,12,10,15,41,0.30
2009,12,10,15,42,0.30
2009,12,10,15,43,0.30
2009,12,10,15,44,0.30
2009,12,10,15,45,0.30
2009,12,10,15,46,0.30
2009,12,10,15,47,0.30
2009,12,10,15,48,0.30
2009,12,10,15,49,0.30
2009,12,10,15,50,0.30
2009,12,10,15,51,0.30
2009,12,10,15,52,0.30
2009,12,10,15,53,0.30
2009,12,10,15,54,0.30
2009,12,10,15,55,0.30
2009,12,10,15,56,0.30
2009,12,10,15,57,0.30
2009,12,10,15,58,0.30
2009,12,10,15,59,0.30
2009,12,10,16,00,0.30
2009,12,10,16,01,0.30
2009,12,10,16,02,0.30
2009,12,10,16,03,0.30
2009,12,10,16,04,0.30
2009,12,10,16,05,0.30
2009,12,10,16,06,0.20
2009,12,10,16,07,0.20
2009,12,10,16,08,0.20
2009,12,10,16,09,0.20
2009,12,10,16,10,0.20
2009,12,10,16,11,0.20
2009,12,10,16,12,0.20
2009,12,10,16,13,0.20
2009,12,10,16,14,0.20
2009,12,10,16,15,0.20
2009,12,10,16,16,0.20
2009,12,10,16,17,0.20
2009,12,10,16,18,0.20
2009,12,10,16,19,0.20
2009,12,10,16,20,0.20
2009,12,10,16,21,0.20
2009,12,10,16,22,0.20
2009,12,10,16,23,0.20
2009,12,10,16,24,0.20
2009,12,10,16,25,0.20
2009,12,10,16,26,0.20
2009,12,10,16,27,0.20
2009,12,10,16,28,0.20
2009,12,10,16,29,0.20
2009,12,10,16,30,0.20
2009,12,10,16,31,0.20
2009,12,10,16,32,0.20
2009,12,10,16,33,0.20
2009,12,10,16,34,0.20
2009,12,10,16,35,0.20
2009,12,10,16,36,0.20
2009,12,10,16,37,0.10
2009,12,10,16,38,0.10
2009,12,10,16,39,0.10
2009,12,10,16,40,0.10
2009,12,10,16,41,0.10
2009,12,10,16,42,0.10
2009,12,10,16,43,0.10
2009,12,10,16,44,0.10
2009,12,10,16,45,0.10
2009,12,10,16,46,0.10
2009,12,10,16,47,0.10
2009,12,10,16,48,0.10
2009,12,10,16,49,0.10
2009,12,10,16,50,0.10
2009,12,10,16,51,0.10
2009,12,10,16,52,0.10
2009,12,10,16,53,0.10
2009,12,10,16,54,0.10
2009,12,10,16,55,0.10
2009,12,10,16,56,0.10
2009,12,10,16,57,0.10
2009,12,10,16,58,0.10
2009,12,10,16,59,0.00
2009,12,10,17,00,0.00
2009,12,10,17,01,0.00
2009,12,10,17,02,0.00
2009,12,10,17,03,0.00
2009,12,10,17,04,0.00
2009,12,10,17,05,0.00
2009,12,10,17,06,0.00
2009,12,10,17,07,0.00
2009,12,10,17,08,0.00
2009,12,10,17,09,0.00
2009,12,10,17,10,0.00
2009,12,10,17,11,0.00
2009,12,10,17,12,0.00
2009,12,10,17,13,0.00
2009,12,10,17,14,0.00
2009,12,10,17,15,0.00
2009,12,10,17,16,0.00
2009,12,10,17,17,0.00
2009,12,10,17,18,0.00
2009,12,10,17,19,0.00
2009,12,10,17,20,0.00
2009,12,10,17,21,0.00
2009,12,10,17,22,0.00
2009,12,10,17,23,0.00
2009,12,10,17,24,0.00
2009,12,10,17,25,0.00
2009,12,10,17,26,0.00
2009,12,10,17,27,0.00
2009,12,10,17,28,0.00
2009,12,10,17,29,0.00
2009,12,10,17,30,0.00